TimePDT,TemperatureF,Dew PointF,Humidity,Sea Level PressureIn,VisibilityMPH,Wind Direction,Wind SpeedMPH,Gust SpeedMPH,PrecipitationIn,Events,Conditions,WindDirDegrees,DateUTC
12:56 AM,52.0,30.0,43,30.12,10.0,NW,6.9,-,N/A,,Clear,320,2012-10-04 07:56:00
1:56 AM,51.1,30.9,46,30.11,10.0,NNW,8.1,-,N/A,,Clear,330,2012-10-04 08:56:00
2:56 AM,51.1,32.0,48,30.11,10.0,NW,3.5,-,N/A,,Clear,320,2012-10-04 09:56:00
3:56 AM,46.9,32.0,56,30.11,10.0,WSW,4.6,-,N/A,,Clear,250,2012-10-04 10:56:00
4:56 AM,50.0,33.1,52,30.10,10.0,NW,6.9,-,N/A,,Clear,320,2012-10-04 11:56:00
5:56 AM,50.0,33.1,52,30.11,10.0,NW,3.5,-,N/A,,Clear,320,2012-10-04 12:56:00
6:56 AM,44.1,33.1,65,30.11,10.0,NE,4.6,-,N/A,,Clear,40,2012-10-04 13:56:00
7:56 AM,48.9,34.0,56,30.12,10.0,NNW,5.8,-,N/A,,Clear,340,2012-10-04 14:56:00
8:56 AM,55.0,34.0,45,30.13,10.0,WNW,3.5,-,N/A,,Clear,300,2012-10-04 15:56:00
9:56 AM,61.0,34.0,36,30.13,10.0,North,9.2,-,N/A,,Clear,360,2012-10-04 16:56:00
10:56 AM,64.9,33.1,31,30.14,10.0,North,10.4,-,N/A,,Clear,350,2012-10-04 17:56:00
11:56 AM,69.1,33.1,26,30.13,10.0,North,11.5,-,N/A,,Clear,360,2012-10-04 18:56:00
12:56 PM,72.0,30.0,21,30.12,10.0,NNE,11.5,-,N/A,,Clear,20,2012-10-04 19:56:00
1:56 PM,73.9,30.9,21,30.10,10.0,North,13.8,18.4,N/A,,Clear,350,2012-10-04 20:56:00
2:56 PM,75.0,28.9,18,30.09,10.0,North,12.7,-,N/A,,Clear,10,2012-10-04 21:56:00
3:56 PM,75.9,28.9,18,30.09,10.0,North,15.0,21.9,N/A,,Clear,350,2012-10-04 22:56:00
4:56 PM,73.9,25.0,16,30.09,10.0,North,18.4,24.2,N/A,,Clear,10,2012-10-04 23:56:00
5:56 PM,71.1,27.0,19,30.09,10.0,North,16.1,-,N/A,,Clear,360,2012-10-05 00:56:00
7:56 PM,62.1,26.1,25,30.10,10.0,North,9.2,-,N/A,,Clear,350,2012-10-05 02:56:00
8:56 PM,57.0,25.0,29,30.10,10.0,North,5.8,-,N/A,,Clear,350,2012-10-05 03:56:00
9:56 PM,55.9,25.0,30,30.12,10.0,NNW,4.6,-,N/A,,Clear,330,2012-10-05 04:56:00
10:56 PM,52.0,28.0,40,30.13,10.0,West,3.5,-,N/A,,Clear,260,2012-10-05 05:56:00
11:56 PM,51.1,27.0,39,30.14,10.0,West,3.5,-,N/A,,Clear,280,2012-10-05 06:56:00